DW2871 Weather Reports


Display with metric or nautical units.
time (UTC)temp
F
wind
direction
speed
MPH
gust
MPH
rain 1hr
in
rain 24hr
in
rain mn
in
humidity
%
barometer
mb
20260505113043 0 271 0.0 0.0 0.00 0.00 0.00 1020.8
20260505111550 0 271 0.0 0.0 0.00 0.00 0.00 1020.8
20260505101518 0 269 0.0 0.0 0.00 0.00 0.00 1020.7
20260505100011 0 270 0.0 0.0 0.00 0.00 0.00 1020.9
20260505094506 0 269 0.0 0.0 0.00 0.00 0.00 1021.0
20260505093002 0 270 0.0 0.0 0.00 0.00 0.00 1020.9
20260505091602 0 269 0.0 0.0 0.00 0.00 0.00 1020.9
20260505090057 0 269 0.0 0.0 0.00 0.00 0.00 1020.7
20260505084548 0 269 0.0 0.0 0.00 0.00 0.00 1020.6
20260505083047 0 269 0.0 0.0 0.00 0.00 0.00 1020.5
20260505081552 0 269 0.0 0.0 0.00 0.00 0.00 1020.4
20260505080002 0 269 0.0 0.0 0.00 0.00 0.00 1020.3
20260505074611 0 269 0.0 0.0 0.00 0.00 0.00 1020.0
20260505073055 0 270 0.0 0.0 0.00 0.00 0.00 1019.9
20260505071526 0 269 0.0 0.0 0.00 0.00 0.00 1019.7
20260505070015 0 269 0.0 0.0 0.00 0.00 0.00 1019.6
20260505064508 0 269 0.0 0.0 0.00 0.00 0.00 1019.5
20260505063002 0 269 0.0 0.0 0.00 0.00 0.00 1019.5
20260505061625 0 269 0.0 0.0 0.00 0.00 0.00 1019.5
20260505060055 0 269 0.0 0.0 0.00 0.00 0.00 1019.4
20260505054559 0 269 0.0 0.0 0.00 0.00 0.00 1019.3
20260505053044 0 269 0.0 0.0 0.00 0.00 0.00 1019.2
20260505051538 0 269 0.0 0.0 0.00 0.00 0.00 1019.3
20260505041517 0 271 0.0 0.0 0.00 0.00 0.00 1019.3
20260505040013 0 258 0.0 0.0 0.00 0.00 0.00 1019.3
20260505034505 0 238 0.0 0.0 0.00 0.00 0.00 1019.8
20260505033001 0 227 0.0 0.0 0.00 0.00 0.00 1020.1
20260505031608 0 246 0.0 0.0 0.00 0.00 0.00 1020.6
20260505030053 -90 279 0.0 0.0 0.00 0.00 0.00 1019.5
20260505024542 0 293 0.0 0.0 0.00 0.00 0.00 1018.4
20260505023015 0 261 0.0 0.0 0.00 0.00 0.00 1018.4
20260505021556 0 254 0.0 0.0 0.00 0.00 0.00 1018.4
20260505020041 0 263 0.0 0.0 0.00 0.00 0.00 1018.5
20260505014529 0 246 0.0 0.0 0.00 0.00 0.00 1018.5
20260505013024 0 248 0.0 0.0 0.00 0.00 0.00 1018.5
20260505011526 0 288 0.0 0.0 0.00 0.00 0.00 1018.5
20260505010015 0 264 0.0 0.0 0.00 0.00 0.00 1018.5
20260505004545 0 292 0.0 0.0 0.00 0.00 0.00 1018.3
20260505003037 0 238 0.0 0.0 0.00 0.00 0.00 1018.1
20260505001503 0 286 0.0 0.0 0.00 0.00 0.00 1017.9
20260505000059 0 261 0.0 0.0 0.00 0.00 0.00 1017.7
20260504234553 0 287 0.0 0.0 0.00 0.00 0.00 1017.4
20260504233058 0 273 0.0 0.0 0.00 0.00 0.00 1017.5
20260504231544 0 259 0.0 0.0 0.00 0.00 0.00 1017.1
20260504230043 0 246 0.0 0.0 0.00 0.00 0.00 1017.1
20260504224508 0 292 0.0 0.0 0.00 0.00 0.00 1017.0
20260504223001 0 271 0.0 0.0 0.00 0.00 0.00 1016.7
20260504221533 0 271 0.0 0.0 0.00 0.00 0.00 1016.3
20260504220024 0 273 0.0 0.0 0.00 0.00 0.00 1016.1
20260504214515 0 271 0.0 0.0 0.00 0.00 0.00 1015.8
20260504213011 0 279 0.0 0.0 0.00 0.00 0.00 1015.6
20260504211507 0 280 0.0 0.0 0.00 0.00 0.00 1015.5
20260504210003 0 295 0.0 0.0 0.00 0.00 0.00 1015.0
20260504204611 0 300 0.0 0.0 0.00 0.00 0.00 1014.7
20260504203051 0 304 0.0 0.0 0.00 0.00 0.00 1014.5
20260504201548 0 252 0.0 0.0 0.00 0.00 0.00 1014.3
20260504200045 0 285 0.0 0.0 0.00 0.00 0.00 1014.0
20260504194541 0 275 0.0 0.0 0.00 0.00 0.00 1013.9
20260504193031 0 279 0.0 0.0 0.00 0.00 0.00 1013.6
20260504191525 0 286 0.0 0.0 0.00 0.00 0.00 1013.3
20260504190020 0 289 0.0 0.0 0.00 0.00 0.00 1013.1
20260504184523 0 360 0.0 0.0 0.00 0.00 0.00 1012.9
20260504183009 0 283 0.0 0.0 0.00 0.00 0.00 1012.7
20260504181505 0 250 0.0 0.0 0.00 0.00 0.00 1012.8
20260504180100 0 277 0.0 0.0 0.00 0.00 0.00 1012.4
20260504174556 0 271 0.0 0.0 0.00 0.00 0.00 1012.4
20260504173048 0 271 0.0 0.0 0.00 0.00 0.00 1012.4
20260504171545 0 257 0.0 0.0 0.00 0.00 0.00 1012.2